CW8392 Weather Reports


Display with metric or nautical units.
time (UTC)temp
F
wind
direction
speed
MPH
gust
MPH
rain 1hr
in
rain 24hr
in
rain mn
in
humidity
%
barometer
mb
20181210131139 45 295 0.0 0.0 0.00 0.00 0.00 82 1022.4
20181210130641 45 344 0.0 0.0 0.00 0.00 0.00 83 1022.4
20181210130144 44 293 0.0 0.0 0.00 0.00 0.00 83 1022.4
20181210125625 44 288 0.0 0.0 0.00 0.00 0.00 83 1022.5
20181210125138 44 272 0.0 0.0 0.00 0.00 0.00 84 1022.6
20181210124656 44 315 0.0 0.0 0.00 0.00 0.00 84 1022.6
20181210124152 44 309 0.0 0.0 0.00 0.00 0.00 84 1022.5
20181210123634 44 324 0.0 0.0 0.00 0.00 0.00 85 1022.6
20181210123137 44 325 0.0 0.0 0.00 0.00 0.00 86 1022.7
20181210122640 45 280 0.0 0.0 0.00 0.00 0.00 85 1022.6
20181210122143 45 311 0.0 0.0 0.00 0.00 0.00 85 1022.6
20181210121645 45 317 0.0 0.0 0.00 0.00 0.00 84 1022.5
20181210121146 45 329 0.0 0.0 0.00 0.00 0.00 83 1022.6
20181210120647 45 331 0.0 0.0 0.00 0.00 0.00 83 1022.6
20181210120206 45 310 0.0 0.0 0.00 0.00 0.00 83 1022.5
20181210115704 45 267 0.0 0.0 0.00 0.00 0.00 83 1022.4
20181210115155 45 269 0.0 0.0 0.00 0.00 0.00 84 1022.4
20181210114712 45 340 0.0 0.0 0.00 0.00 0.00 84 1022.4
20181210114211 44 289 0.0 0.0 0.00 0.00 0.00 84 1022.4
20181210113713 44 303 0.0 0.0 0.00 0.00 0.00 83 1022.4
20181210113214 44 294 0.0 0.0 0.00 0.00 0.00 83 1022.5
20181210112715 45 317 0.0 0.0 0.00 0.00 0.00 83 1022.7
20181210112219 45 303 0.0 0.0 0.00 0.00 0.00 81 1022.7
20181210111718 46 330 0.0 0.0 0.00 0.00 0.00 80 1022.5
20181210111216 47 342 0.0 0.0 0.00 0.00 0.00 79 1022.5
20181210110607 46 290 0.0 0.0 0.00 0.00 0.00 78 1022.3
20181210110107 46 286 0.0 0.0 0.00 0.00 0.00 79 1022.2
20181210105605 46 269 0.0 0.0 0.00 0.00 0.00 80 1022.3
20181210105117 46 288 0.0 0.0 0.00 0.00 0.00 83 1022.3
20181210104647 46 267 0.0 0.0 0.00 0.00 0.00 85 1022.2
20181210104128 46 250 0.0 0.0 0.00 0.00 0.00 86 1022.2
20181210103632 45 284 0.0 0.0 0.00 0.00 0.00 86 1022.1
20181210103116 45 296 0.0 0.0 0.00 0.00 0.00 86 1022.1
20181210102621 45 262 0.0 0.0 0.00 0.00 0.00 86 1022.0
20181210102123 45 284 0.0 0.0 0.00 0.00 0.00 86 1022.0
20181210101629 45 267 0.0 0.0 0.00 0.00 0.00 87 1022.0
20181210101133 45 271 0.0 0.0 0.00 0.00 0.00 87 1022.0
20181210100629 45 257 0.0 0.0 0.00 0.00 0.00 87 1021.9
20181210100131 45 308 0.0 0.0 0.00 0.00 0.00 87 1021.9
20181210095632 45 281 0.0 0.0 0.00 0.00 0.00 87 1022.0
20181210095147 45 269 0.0 0.0 0.00 0.00 0.00 87 1022.0
20181210094642 44 287 0.0 0.0 0.00 0.00 0.00 87 1022.0
20181210094144 44 265 0.0 0.0 0.00 0.00 0.00 87 1022.0
20181210093649 44 306 0.0 0.0 0.00 0.00 0.00 87 1022.0
20181210093147 44 256 0.0 0.0 0.00 0.00 0.00 88 1022.0
20181210092648 44 270 0.0 0.0 0.00 0.00 0.00 88 1022.0
20181210092149 44 271 0.0 0.0 0.00 0.00 0.00 88 1022.0
20181210091652 43 253 0.0 0.0 0.00 0.00 0.00 88 1021.9
20181210091153 43 279 0.0 0.0 0.00 0.00 0.00 89 1021.8
20181210090656 43 263 0.0 0.0 0.00 0.00 0.00 89 1021.8
20181210090153 43 292 0.0 0.0 0.00 0.00 0.00 89 1021.7
20181210085654 43 267 0.0 0.0 0.00 0.00 0.00 89 1021.7
20181210085208 43 259 0.0 0.0 0.00 0.00 0.00 89 1021.7
20181210084703 43 262 0.0 0.0 0.00 0.00 0.00 89 1021.7
20181210084207 43 270 0.0 0.0 0.00 0.00 0.00 89 1021.6
20181210083710 43 251 0.0 0.0 0.00 0.00 0.00 89 1021.6
20181210083214 42 281 0.0 0.0 0.00 0.00 0.00 89 1021.5
20181210082712 42 258 0.0 0.0 0.00 0.00 0.00 90 1021.4
20181210082210 42 261 0.0 0.0 0.00 0.00 0.00 90 1021.4
20181210081718 42 230 0.0 0.0 0.00 0.00 0.00 90 1021.4
20181210081219 42 270 0.0 0.0 0.00 0.00 0.00 90 1021.3
20181210080617 42 253 0.0 0.0 0.00 0.00 0.00 90 1021.4
20181210080119 42 284 0.0 0.0 0.00 0.00 0.00 90 1021.4
20181210075617 42 279 0.0 0.0 0.00 0.00 0.00 90 1021.2
20181210075113 42 259 0.0 0.0 0.00 0.00 0.00 90 1021.2
20181210074628 42 263 0.0 0.0 0.00 0.00 0.00 90 1021.2
20181210074111 42 246 0.0 0.0 0.00 0.00 0.00 90 1021.1
20181210073618 42 272 0.0 0.0 0.00 0.00 0.00 91 1021.1
20181210073123 42 258 0.0 0.0 0.00 0.00 0.00 91 1021.0
20181210072623 42 271 0.0 0.0 0.00 0.00 0.00 91 1020.9
20181210072124 42 247 0.0 0.0 0.00 0.00 0.00 91 1020.9
20181210071620 42 247 0.0 0.0 0.00 0.00 0.00 92 1020.8
20181210071123 42 246 0.0 0.0 0.00 0.00 0.00 92 1020.8
20181210070627 41 271 0.0 0.0 0.00 0.00 0.00 92 1020.7
20181210070136 41 273 0.0 0.0 0.00 0.00 0.00 92 1020.6
20181210065637 41 242 0.0 0.0 0.00 0.00 0.00 92 1020.6
20181210065153 41 271 0.0 0.0 0.00 0.00 0.00 91 1020.6
20181210064644 41 242 0.0 0.0 0.00 0.00 0.00 91 1020.6
20181210064148 41 266 0.0 0.0 0.00 0.00 0.00 91 1020.6
20181210063647 41 223 0.0 0.0 0.00 0.00 0.00 91 1020.5
20181210063150 41 258 0.0 0.0 0.00 0.00 0.00 91 1020.5
20181210062654 41 273 0.0 0.0 0.00 0.00 0.00 91 1020.4
20181210062159 41 268 0.0 0.0 0.00 0.00 0.00 91 1020.4
20181210061657 41 270 0.0 0.0 0.00 0.00 0.00 91 1020.4
20181210061158 41 272 0.0 0.0 0.00 0.00 0.00 91 1020.4
20181210060701 41 261 0.0 0.0 0.00 0.00 0.00 91 1020.4
20181210060203 41 275 0.0 0.0 0.00 0.00 0.00 91 1020.4
20181210055646 41 299 0.0 0.0 0.00 0.00 0.00 91 1020.5
20181210055201 41 339 0.0 0.0 0.00 0.00 0.00 91 1020.8
20181210054657 41 315 0.0 0.0 0.00 0.00 0.00 90 1020.4
20181210054158 41 314 0.0 0.0 0.00 0.00 0.00 90 1020.3
20181210053719 41 297 0.0 0.0 0.00 0.00 0.00 90 1020.2
20181210053220 41 291 0.0 0.0 0.00 0.00 0.00 90 1020.3
20181210052701 42 305 0.0 0.0 0.00 0.00 0.00 89 1020.3
20181210052203 42 308 0.0 0.0 0.00 0.00 0.00 89 1020.3
20181210051726 42 329 0.0 0.0 0.00 0.00 0.00 89 1020.2
20181210051222 43 317 0.0 0.0 0.00 0.00 0.00 89 1020.3
20181210050619 43 355 0.0 0.0 0.00 0.00 0.00 89 1020.2
20181210050119 42 262 0.0 0.0 0.00 0.00 0.00 89 1019.8
20181210045620 42 277 0.0 0.0 0.00 0.00 0.00 89 1019.6
20181210045115 42 279 0.0 0.0 0.00 0.00 0.00 88 1019.8
20181210044630 42 257 0.0 0.0 0.00 0.00 0.00 89 1019.8
20181210044130 42 272 0.0 0.0 0.00 0.00 0.00 88 1019.7
20181210043631 42 264 0.0 0.0 0.00 0.00 0.00 88 1019.7
20181210043131 42 238 0.0 0.0 0.00 0.00 0.00 88 1019.6
20181210042141 42 265 0.0 0.0 0.00 0.00 0.00 88 1019.6
20181210041641 42 267 0.0 0.0 0.00 0.00 0.00 88 1019.6
20181210041142 42 281 0.0 0.0 0.00 0.00 0.00 88 1019.5
20181210040639 42 309 0.0 0.0 0.00 0.00 0.00 88 1019.5
20181210040141 42 254 0.0 0.0 0.00 0.00 0.00 89 1019.3
20181210035643 42 314 0.0 0.0 0.00 0.00 0.00 88 1019.3
20181210035130 41 258 0.0 0.0 0.00 0.00 0.00 89 1019.4
20181210034647 41 269 0.0 0.0 0.00 0.00 0.00 89 1019.3
20181210034151 41 272 0.0 0.0 0.00 0.00 0.00 89 1019.3
20181210033653 41 267 0.0 0.0 0.00 0.00 0.00 89 1019.2
20181210033157 41 272 0.0 0.0 0.00 0.00 0.00 89 1019.1
20181210032700 41 290 0.0 0.0 0.00 0.00 0.00 89 1019.1
20181210032142 41 259 0.0 0.0 0.00 0.00 0.00 89 1019.2
20181210031649 41 261 0.0 0.0 0.00 0.00 0.00 88 1019.1
20181210031151 41 249 0.0 0.0 0.00 0.00 0.00 88 1019.0
20181210030653 41 269 0.0 0.0 0.00 0.00 0.00 87 1018.9
20181210030155 41 292 0.0 0.0 0.00 0.00 0.00 87 1018.9
20181210025658 41 295 0.0 0.0 0.00 0.00 0.00 87 1018.8
20181210025155 42 306 0.0 0.0 0.00 0.00 0.00 88 1018.8
20181210024710 42 285 0.0 0.0 0.00 0.00 0.00 88 1018.7
20181210024212 42 237 0.0 0.0 0.00 0.00 0.00 88 1018.6
20181210023717 42 269 0.0 0.0 0.00 0.00 0.00 88 1019.2
20181210023200 42 281 0.0 0.0 0.00 0.00 0.00 88 1019.1
20181210022706 42 330 0.0 0.0 0.00 0.00 0.00 88 1019.1
20181210022211 42 286 0.0 0.0 0.00 0.00 0.00 87 1019.0
20181210021713 42 278 0.0 0.0 0.00 0.00 0.00 87 1018.7
20181210021220 42 307 0.0 0.0 0.00 0.00 0.00 87 1018.6
20181210020605 42 252 0.0 0.0 0.00 0.00 0.00 86 1018.6
20181210020109 42 244 0.0 0.0 0.00 0.00 0.00 86 1018.5
20181210015613 42 248 0.0 0.0 0.00 0.00 0.00 86 1018.6
20181210015123 42 249 0.0 0.0 0.00 0.00 0.00 85 1018.4
20181210014623 42 10 0.0 0.0 0.00 0.00 0.00 85 1018.5
20181210014128 42 293 0.0 0.0 0.00 0.00 0.00 84 1018.4
20181210013630 42 293 0.0 0.0 0.00 0.00 0.00 84 1018.4
20181210013136 42 317 0.0 0.0 0.00 0.00 0.00 84 1018.3
20181210012621 43 302 0.0 0.0 0.00 0.00 0.00 84 1018.2
20181210012124 43 338 0.0 0.0 0.00 0.00 0.00 84 1018.3
20181210011631 43 329 0.0 0.0 0.00 0.00 0.00 84 1018.2
20181210011136 43 355 0.0 0.0 0.00 0.00 0.00 84 1018.1
20181210010641 42 281 0.0 0.0 0.00 0.00 0.00 83 1018.2
20181210010143 42 304 0.0 0.0 0.00 0.00 0.00 83 1018.1
20181210005643 42 268 0.0 0.0 0.00 0.00 0.00 83 1017.8
20181210005136 42 270 0.0 0.0 0.00 0.00 0.00 83 1017.9
20181210004652 42 252 0.0 0.0 0.00 0.00 0.00 83 1017.9
20181210004154 43 287 0.0 0.0 0.00 0.00 0.00 83 1017.9
20181210003656 43 262 0.0 0.0 0.00 0.00 0.00 83 1017.9
20181210003157 43 294 0.0 0.0 0.00 0.00 0.00 83 1017.8
20181210002659 43 272 0.0 0.0 0.00 0.00 0.00 83 1017.8
20181210002159 43 266 0.0 0.0 0.00 0.00 0.00 82 1017.6
20181210001703 43 293 0.0 0.0 0.00 0.00 0.00 82 1017.6
20181210001205 43 284 0.0 0.0 0.00 0.00 0.00 84 1017.7
20181210000708 43 311 0.0 0.0 0.00 0.00 0.00 85 1017.7
20181210000211 43 304 0.0 0.0 0.00 0.00 0.00 85 1017.6
20181209235200 43 280 0.0 0.0 0.00 0.00 0.00 84 1017.2
20181209234713 43 288 0.0 0.0 0.00 0.00 0.00 83 1017.2
20181209234216 44 270 0.0 0.0 0.00 0.00 0.00 82 1017.2
20181209233700 44 284 0.0 0.0 0.00 0.00 0.00 81 1017.2
20181209233203 44 265 0.0 0.0 0.00 0.00 0.00 82 1017.1
20181209232709 44 272 0.0 0.0 0.00 0.00 0.00 81 1017.1
20181209232213 44 292 0.0 0.0 0.00 0.00 0.00 81 1017.0
20181209231729 44 272 0.0 0.0 0.00 0.00 0.00 80 1016.9
20181209231225 44 277 0.0 0.0 0.00 0.00 0.00 79 1016.8
20181209230625 44 279 0.0 0.0 0.00 0.00 0.00 78 1016.7
20181209230106 44 340 0.0 0.0 0.00 0.00 0.00 77 1016.6
20181209225609 44 323 0.0 0.0 0.00 0.00 0.00 77 1016.6
20181209225121 44 296 0.0 0.0 0.00 0.00 0.00 77 1016.5
20181209224634 44 330 0.0 0.0 0.00 0.00 0.00 78 1016.4
20181209224133 43 280 0.0 0.0 0.00 0.00 0.00 79 1016.2
20181209223617 43 303 0.0 0.0 0.00 0.00 0.00 82 1016.1
20181209223122 42 313 0.0 0.0 0.00 0.00 0.00 83 1016.1
20181209222626 42 279 0.0 0.0 0.00 0.00 0.00 84 1016.0
20181209222129 43 273 0.0 0.0 0.00 0.00 0.00 85 1016.0
20181209221632 43 276 0.0 0.0 0.00 0.00 0.00 85 1015.9
20181209221132 43 278 0.0 0.0 0.00 0.00 0.00 85 1015.9
20181209220637 43 286 0.0 0.0 0.00 0.00 0.00 84 1015.8
20181209220138 43 251 0.0 0.0 0.00 0.00 0.00 84 1015.7
20181209215639 43 291 0.0 0.0 0.00 0.00 0.00 83 1015.6
20181209215138 43 263 0.0 0.0 0.00 0.00 0.00 83 1015.5
20181209214652 43 271 0.0 0.0 0.00 0.00 0.00 83 1015.5
20181209214151 44 296 0.0 0.0 0.00 0.00 0.00 84 1015.5
20181209213656 44 279 0.0 0.0 0.00 0.00 0.00 84 1015.5
20181209213139 44 266 0.0 0.0 0.00 0.00 0.00 84 1015.3
20181209212703 44 290 0.0 0.0 0.00 0.00 0.00 84 1015.2
20181209212144 44 321 0.0 0.0 0.00 0.00 0.00 84 1015.2
20181209211646 44 278 0.0 0.0 0.00 0.00 0.00 85 1015.2
20181209211146 44 273 0.0 0.0 0.00 0.00 0.00 87 1015.2
20181209210649 44 263 0.0 0.0 0.00 0.00 0.00 88 1015.2
20181209210208 44 295 0.0 0.0 0.00 0.00 0.00 88 1015.0
20181209205705 44 269 0.0 0.0 0.00 0.00 0.00 88 1014.8
20181209205200 44 252 0.0 0.0 0.00 0.00 0.00 88 1014.6
20181209204711 44 264 0.0 0.0 0.00 0.00 0.00 88 1014.8
20181209204214 44 286 0.0 0.0 0.00 0.00 0.00 88 1014.5
20181209203711 44 268 0.0 0.0 0.00 0.00 0.00 88 1014.4
20181209203213 44 287 0.0 0.0 0.00 0.00 0.00 88 1014.3
20181209202717 44 263 0.0 0.0 0.00 0.00 0.00 89 1014.3
20181209202216 43 263 0.0 0.0 0.00 0.00 0.00 89 1014.1
20181209201717 43 267 0.0 0.0 0.00 0.00 0.00 89 1014.1
20181209201103 43 273 0.0 0.0 0.00 0.00 0.00 89 1014.0
20181209200601 43 290 0.0 0.0 0.00 0.00 0.00 89 1013.9
20181209200119 43 288 0.0 0.0 0.00 0.00 0.00 89 1013.8
20181209195600 43 234 0.0 0.0 0.00 0.00 0.00 89 1013.7
20181209195116 43 273 0.0 0.0 0.00 0.00 0.00 89 1013.8
20181209194622 43 284 0.0 0.0 0.00 0.00 0.00 89 1013.7
20181209194125 43 309 0.0 0.0 0.00 0.00 0.00 90 1013.6
20181209193627 43 282 0.0 0.0 0.00 0.00 0.00 90 1013.5
20181209193129 44 300 0.0 0.0 0.00 0.00 0.00 90 1013.4
20181209192134 44 331 0.0 0.0 0.00 0.00 0.00 90 1013.5
20181209191638 44 302 0.0 0.0 0.00 0.00 0.00 90 1013.4
20181209191121 44 286 0.0 0.0 0.00 0.00 0.00 89 1013.2
20181209190624 44 279 0.0 0.0 0.00 0.00 0.00 89 1012.9
20181209190127 44 271 0.0 0.0 0.00 0.00 0.00 89 1012.8
20181209185627 44 288 0.0 0.0 0.00 0.00 0.00 88 1012.8
20181209185143 44 302 0.0 0.0 0.00 0.00 0.00 88 1012.7
20181209184145 44 291 0.0 0.0 0.00 0.00 0.00 87 1012.6
20181209183647 45 325 0.0 0.0 0.00 0.00 0.00 86 1012.4
20181209183148 45 312 0.0 0.0 0.00 0.00 0.00 86 1012.5
20181209182650 45 271 0.0 0.0 0.00 0.00 0.00 87 1012.3
20181209182154 45 320 0.0 0.0 0.00 0.00 0.00 88 1012.0
20181209181656 45 314 0.0 0.0 0.00 0.00 0.00 89 1011.8
20181209181200 45 294 0.0 0.0 0.00 0.00 0.00 89 1011.8
20181209180702 45 281 0.0 0.0 0.00 0.00 0.00 89 1011.7
20181209175702 46 259 0.0 0.0 0.00 0.00 0.00 88 1011.5
20181209175158 45 276 0.0 0.0 0.00 0.00 0.00 88 1011.2
20181209174716 46 273 0.0 0.0 0.00 0.00 0.00 88 1011.1
20181209174216 46 265 0.0 0.0 0.00 0.00 0.00 88 1010.9
20181209173718 46 290 0.0 0.0 0.00 0.00 0.00 88 1010.8
20181209173223 46 272 0.0 0.0 0.00 0.00 0.00 87 1010.7
20181209172215 46 340 0.0 0.0 0.00 0.00 0.00 85 1010.5
20181209171718 46 284 0.0 0.0 0.00 0.00 0.00 84 1010.2
20181209171119 46 281 0.0 0.0 0.00 0.00 0.00 84 1010.0
20181209170624 46 321 0.0 0.0 0.00 0.00 0.00 84 1009.9
20181209170109 46 293 0.0 0.0 0.00 0.00 0.00 85 1009.8
20181209165117 46 305 0.0 0.0 0.00 0.00 0.00 86 1009.6
20181209164611 46 295 0.0 0.0 0.00 0.00 0.00 85 1009.5
20181209164115 46 267 0.0 0.0 0.00 0.00 0.00 85 1009.3
20181209163638 47 337 0.0 0.0 0.00 0.00 0.00 84 1009.1
20181209163118 47 254 0.0 0.0 0.00 0.00 0.00 85 1009.0
20181209162622 46 294 0.0 0.0 0.00 0.00 0.00 85 1008.9
20181209162122 46 303 0.0 0.0 0.00 0.00 0.00 86 1008.7
20181209161625 46 251 0.0 0.0 0.00 0.00 0.00 86 1008.6
20181209161129 46 277 0.0 0.0 0.00 0.00 0.00 86 1008.5
20181209160635 46 276 0.0 0.0 0.00 0.00 0.00 85 1008.3
20181209160138 46 299 0.0 0.0 0.00 0.00 0.00 85 1008.2
20181209155640 46 355 0.0 0.0 0.00 0.00 0.00 85 1008.1
20181209155131 46 309 0.0 0.0 0.00 0.00 0.00 85 1008.0
20181209154649 46 275 0.0 0.0 0.00 0.00 0.00 84 1007.9
20181209154148 46 251 0.0 0.0 0.00 0.00 0.00 84 1007.6
20181209153648 46 300 0.0 0.0 0.00 0.00 0.00 84 1007.5
20181209153150 46 42 0.0 0.0 0.00 0.00 0.00 84 1007.4
20181209152149 47 305 0.0 0.0 0.00 0.00 0.00 83 1007.5
20181209151649 47 344 0.0 0.0 0.00 0.00 0.00 82 1006.9
20181209151150 47 286 0.0 0.0 0.00 0.00 0.00 83 1006.7
20181209150651 47 295 0.0 0.0 0.00 0.00 0.00 82 1006.6
20181209150152 47 296 0.0 0.0 0.00 0.00 0.00 82 1006.4
20181209145652 47 321 0.0 0.0 0.00 0.00 0.00 83 1006.4
20181209145201 47 349 0.0 0.0 0.00 0.00 0.00 85 1006.2
20181209144713 47 290 0.0 0.0 0.00 0.00 0.00 87 1006.0
20181209144214 46 282 0.0 0.0 0.00 0.00 0.00 88 1005.8
20181209143718 46 302 0.0 0.0 0.00 0.00 0.00 88 1005.7
20181209143220 46 344 0.0 0.0 0.00 0.00 0.00 88 1005.6
20181209142704 46 321 0.0 0.0 0.00 0.00 0.00 87 1005.5
20181209142209 46 329 0.0 0.0 0.00 0.00 0.00 87 1005.4
20181209141708 47 310 0.0 0.0 0.00 0.00 0.00 86 1005.4
20181209141114 47 330 0.0 0.0 0.00 0.00 0.00 85 1005.2
20181209140614 47 329 0.0 0.0 0.00 0.00 0.00 85 1004.9
20181209140117 47 331 0.0 0.0 0.00 0.00 0.00 84 1004.8
20181209135616 48 298 0.0 0.0 0.00 0.00 0.00 83 1004.6
20181209135124 49 338 0.0 0.0 0.00 0.00 0.00 82 1004.5
20181209134123 49 257 0.0 0.0 0.00 0.00 0.00 80 1004.1
20181209133626 49 276 0.0 0.0 0.00 0.00 0.00 79 1004.0
20181209133127 49 326 0.0 0.0 0.00 0.00 0.00 78 1003.8
20181209132631 49 330 0.0 0.0 0.00 0.00 0.00 78 1003.7
20181209132134 49 294 0.0 0.0 0.00 0.00 0.00 78 1003.7
20181209131635 50 295 0.0 0.0 0.00 0.00 0.00 80 1003.6